Regional Weather Roundup
Issued by NWS

Home | Current Version | Previous Version | Text Only | Print | Product List | Glossary Off
Versions: 1 2 3 4 5 6 7 8 9 10 11 12 13 14 15 16 17 18 19 20 21 22 23 24 25 26 27 28 29 30 31 32 33 34 35 36 37 38 39 40 41 42 43 44 45 46 47 48 49 50

000
ASUS45 KSLC 231210
RWRUT

UTAH REGIONAL WEATHER ROUNDUP
NATIONAL WEATHER SERVICE SALT LAKE CITY UT
600 AM MDT TUE SEP 23 2014

UTZ001>011-023>025-231300-

NORTHERN UTAH

CITY           SKY/WX    TMP DP  RH WIND       PRES   REMARKS
HILL AFB       CLEAR     60  49  65 E12       30.15R
LOGAN          CLEAR     50  48  93 NW6       30.15R
OGDEN          PTCLDY    59  50  72 S6        30.12S
PROVO AIRPORT  CLEAR     55  48  76 SE5       30.17S
SALT LAKE CITY CLEAR     61  53  75 SE9       30.12R
VERNAL         PTCLDY    54  48  80 W5        30.19S
WENDOVER       CLEAR     55  50  82 CALM      30.12S
HEBER CITY     PTCLDY    46  45  93 CALM      30.22S
WEST JORDAN    CLEAR     61  50  67 S8        30.14S

$$

UTZ012>022-026-027-231300-

SOUTHERN UTAH

CITY           SKY/WX    TMP DP  RH WIND       PRES   REMARKS
BRYCE CANYON   CLEAR     38  34  85 W10       30.36S WCI  31
CEDAR CITY     CLEAR     47  40  76 SW3       30.22S
MILFORD        CLEAR     51  45  79 S10       30.18R
MOAB/CYNLANDS  PTCLDY    59  55  87 CALM      30.13S
PRICE          CLEAR     54  50  86 N3        30.23S
ST GEORGE      SUNNY     64  45  48 CALM      30.10S
KANAB            N/A     48  43  81 NE3       30.24S

$$

REGIONAL REPORTS     COLORADO/ARIZONA

CITY           SKY/WX    TMP DP  RH WIND       PRES   REMARKS
CRAIG, CO      CLOUDY    52  49  89 CALM      30.24S
GRAND JUNCTION MOCLDY    59  51  75 E14       30.18R
RIFLE          CLOUDY    55  51  86 CALM      30.23R
MONTROSE       PTCLDY    52  47  83 SE3       30.27R
CORTEZ         CLEAR     44  42  93 E3        30.26S
PAGE, AZ       CLEAR     65  43  44 SW3       30.15R
GRAND CANYON   CLEAR     38  35  89 CALM      30.31S
KINGMAN        CLEAR     60  37  42 S5        30.09S
FLAGSTAFF      CLEAR     43  39  86 CALM      30.33S

$$

REGIONAL REPORTS    NEVADA/IDAHO/WYOMING

CITY           SKY/WX    TMP DP  RH WIND       PRES   REMARKS
LAS VEGAS, NV  CLEAR     73  38  27 SW8       29.96R
ELY            CLEAR     46  43  89 S9        30.25S
ELKO           PTCLDY    50  43  77 E6        30.16R
POCATELLO, ID  CLEAR     45  45 100 CALM      30.15S
BURLEY         CLEAR     48  46  93 CALM      30.10S
EVANSTON, WY   CLOUDY    52  45  77 SW8       30.27S
ROCK SPRINGS   CLEAR     47  42  83 SW8       30.24S

$$



USA.gov is the U.S. government's official web portal to all federal, state and local government web resources and services.